#timestamp,LO_Frequency,Hit,StdDev 
1513674015.1,286047002.2,N
1513674016.0,286047002.2,N
1513674035.8,286047001.6,N
1513674055.6,286047002.7,N
1513674075.5,286047001.7,N
1513674095.3,286047004.0,Y
1513674115.2,286047002.4,P
1513674135.9,286047001.6,N
1513674155.7,286046999.9,N
1513674175.6,286046999.7,N
1513674195.4,286047000.6,N
1513674215.3,286047000.5,N
1513674235.1,286046998.7,N
1513674236.0,286046998.7,N
1513674255.8,286046999.3,N
1513674275.7,286047000.5,N
1513674295.5,286047001.0,N
1513674315.3,286047000.5,N
1513674335.2,286047000.5,N
1513674355.0,286047000.7,N
1513674355.9,286047000.7,N
1513674375.8,286047001.2,N
1513674395.6,286046998.2,N
1513674415.4,286046998.6,N
1513674435.3,286047001.0,N
1513674455.1,286046998.3,N
1513674475.9,286046998.2,N
1513674495.7,286047001.1,N
1513674515.5,286047001.0,N
1513674535.4,286046999.9,N
1513674555.2,286047000.9,N
1513674575.0,286046999.9,N
1513674575.9,286046999.9,N
1513674595.8,286047002.7,N
1513674615.6,286047000.6,N
1513674635.5,286047000.3,N
1513674655.3,286047000.8,N
1513674675.1,286047000.7,N
1513674695.9,286046998.2,N
1513674715.7,286047000.6,N
1513674735.6,286047000.4,N
1513674755.4,286047000.9,N
1513674775.2,286046999.8,N
1513674795.1,286047000.3,N
1513674796.0,286047000.3,N
1513674815.8,286047001.1,N
1513674835.6,286046998.6,N
1513674855.5,286046998.4,N
1513674875.3,286046998.6,N
1513674895.2,286046999.4,N
1513674915.9,286046998.1,N
1513674935.7,286046998.2,N
1513674955.6,286047000.5,N
1513674975.4,286047002.8,N
1513674995.2,286047002.3,N
1513675015.1,286047002.1,N
1513675016.0,286047002.1,N
1513675035.8,286047001.5,N
1513675055.7,286047001.8,N
1513675075.5,286047002.4,N
1513675095.3,286047000.0,N
1513675115.2,286046999.8,N
1513675135.0,286047000.2,N
1513675135.9,286047000.2,N
1513675155.7,286047000.9,N
1513675175.6,286047000.4,N
1513675195.4,286046998.7,N
1513675215.3,286046998.9,N
1513675235.1,286046999.4,N
1513675255.8,286046999.4,N
1513675275.7,286046996.6,N
1513675295.5,286046998.7,N
1513675315.4,286046999.0,N
1513675335.2,286046999.3,N
1513675355.0,286046999.0,N
1513675355.9,286046999.0,N
1513675375.8,286046996.5,N
1513675395.6,286046996.5,N
1513675415.4,286046997.3,N
1513675435.3,286046997.9,N
1513675455.1,286046997.9,N
1513675475.9,286046997.9,N
1513675495.7,286046997.4,N
1513675515.5,286046997.0,N
1513675535.4,286046999.5,N
1513675555.2,286046996.8,N
1513675575.0,286046997.2,N
1513675575.9,286046997.2,N
1513675595.8,286046997.4,N
1513675615.6,286046997.1,N
1513675635.5,286046996.7,N
1513675655.3,286046997.1,N
1513675675.1,286046997.5,N
1513675695.9,286046996.4,N
1513675715.7,286046993.5,Y
1513675735.5,286046995.4,P
1513675755.4,286046996.1,N
1513675775.2,286046996.4,P
1513675795.1,286046996.3,Y
1513675796.0,286046996.3,P
1513675815.8,286046998.8,P
1513675835.6,286046998.9,N
1513675855.5,286046996.6,N
1513675875.3,286047001.1,N
1513675895.2,286046998.6,N
1513675915.9,286046998.5,N
1513675935.7,286046998.3,N
1513675955.6,286047000.9,N
1513675975.4,286046998.3,N
1513675995.2,286046999.5,N
1513676015.1,286046997.0,N
1513676016.0,286046997.0,N
1513676035.8,286046996.5,N
1513676055.7,286046998.9,N
1513676075.5,286046995.0,Y
1513676095.3,286046998.3,P
1513676115.2,286046996.7,P
1513676135.0,286046997.4,P
1513676135.9,286046997.4,Y
1513676155.8,286047000.2,P
1513676175.6,286046998.2,N
1513676195.4,286046998.9,N
1513676215.3,286046998.1,N
1513676235.1,286046999.0,N
1513676255.8,286046998.7,N
1513676275.7,286046999.6,N
1513676295.5,286046996.5,Y
1513676315.4,286046997.0,P
1513676335.2,286046998.3,N
1513676355.0,286046999.9,N
1513676355.9,286046999.9,N
1513676375.8,286046998.5,N
1513676395.6,286047000.6,N
1513676415.4,286047000.9,N
1513676435.3,286046998.8,N
1513676455.1,286046998.4,N
1513676475.9,286046996.7,N
1513676495.7,286047000.4,N
1513676515.5,286046998.1,N
1513676535.4,286047002.7,N
1513676555.2,286047002.5,N
1513676575.0,286047002.3,N
1513676575.9,286047002.3,N
1513676595.8,286047002.6,N
1513676615.6,286047000.1,N
1513676635.5,286047000.2,N
1513676655.3,286047000.1,N
1513676675.1,286047000.1,N
1513676695.9,286047000.6,N
1513676715.7,286047000.8,N
1513676735.5,286047000.6,N
1513676755.4,286047001.2,N
1513676775.2,286047001.1,N
1513676795.1,286046998.2,N
1513676796.0,286046998.2,N
1513676815.8,286046999.0,N
1513676835.6,286047000.2,N
1513676855.5,286047000.6,N
1513676875.3,286046996.9,N
1513676895.2,286046999.1,N
1513676915.9,286046998.4,N
1513676935.7,286046999.0,N
1513676955.6,286046999.6,N
1513676975.4,286046998.1,N
1513676995.3,286046998.5,N
1513677015.1,286046998.9,N
1513677016.0,286046998.9,N
1513677035.8,286047000.6,N
1513677055.7,286046998.5,N
1513677075.5,286047000.8,N
1513677095.4,286046999.9,N
1513677115.2,286046999.2,N
1513677135.0,286046999.1,N
1513677135.9,286046999.1,N
1513677155.8,286046999.4,N
1513677175.6,286046997.1,N
1513677195.4,286046999.4,N
1513677215.3,286046996.9,N
1513677235.1,286046997.7,N
1513677255.9,286046998.0,N
1513677275.7,286046996.9,N
1513677295.5,286046996.5,N
1513677315.4,286046997.6,N
1513677335.2,286046997.5,N
1513677355.0,286046999.6,N
1513677355.9,286046999.6,N
1513677375.8,286047000.8,N
1513677395.6,286047000.9,N
1513677415.5,286047000.7,N
1513677435.3,286047000.3,N
1513677455.1,286047000.9,N
1513677475.9,286046998.1,N
1513677495.7,286047002.7,N
1513677515.5,286047000.0,N
1513677535.4,286047000.2,N
1513677555.2,286047000.6,N
1513677575.1,286047001.0,N
1513677576.0,286047001.0,N
1513677595.8,286047000.3,N
